Theta_e
354 354 354 352 353 353 352 351 350 351 351 353 352 353 351 351 351 353 352 351 352 351 351 350 350 353 351 349 351 352 355 350 349 352 352 349 343 350 349 349 352 352 350
354 353 354 352 354 354 352 352 352 350 346 350 349 354 351 353 352 352 352 353 352 351 350 353 352 352 351 350 350 352 351 350 347 351 353 350 349 349 352 354 354 352 351
354 354 354 350 353 353 352 352 352 353 352 352 351 350 352 352 352 352 352 355 352 351 351 351 352 350 350 352 352 352 351 353 351 351 353 351 353 351 342 354 353 352 350
349 353 355 352 352 355 354 355 350 352 352 351 352 352 354 354 353 353 352 352 351 352 353 353 353 352 353 351 350 351 348 350 352 351 351 352 352 349 345 351 352 351 349
354 353 354 352 353 352 354 354 354 352 352 352 350 352 353 352 353 354 353 353 352 352 352 352 353 354 352 351 352 352 352 352 351 353 353 352 351 351 350 352 350 348 346
352 356 354 354 352 353 353 352 352 352 353 353 352 350 353 352 353 353 352 351 349 352 352 350 351 353 352 351 351 351 352 350 351 354 353 353 352 348 351 350 347 345 341
355 357 354 351 357 354 354 355 356 356 353 352 350 350 351 352 353 351 350 350 350 349 350 351 350 351 352 350 350 351 350 350 350 349 354 356 355 349 350 349 351 348 344
356 357 358 357 356 356 357 355 354 354 354 354 353 350 353 353 352 351 351 350 350 348 349 350 350 351 349 352 352 351 353 352 351 349 348 347 347 347 346 350 351 351 347
358 358 357 358 358 357 354 354 353 352 351 350 350 351 350 350 350 350 350 350 349 347 348 351 349 351 352 352 351 351 352 353 353 353 352 352 352 350 348 350 351 350 347
359 357 356 356 355 355 353 352 347 347 347 345 345 346 346 347 348 348 350 349 349 349 349 349 348 348 348 349 352 352 352 352 353 353 350 350 350 351 350 350 351 350 350
358 358 357 356 354 351 350 348 347 347 345 342 344 345 345 345 346 348 348 349 347 348 348 347 348 349 350 350 350 350 350 351 351 350 348 347 348 349 350 349 349 350 349
354 353 351 350 348 346 345 344 345 345 344 343 342 342 345 342 342 341 344 347 348 348 347 347 348 348 348 348 347 344 345 348 349 348 348 349 349 348 349 351 351 349 348
350 350 350 349 347 347 347 348 346 344 343 345 346 347 347 345 347 347 347 344 343 342 343 344 344 343 343 342 342 342 342 342 342 344 348 349 349 350 350 348 346 344 341
350 350 349 349 348 347 346 346 346 345 344 341 339 340 342 340 341 344 344 343 341 339 339 339 340 341 341 342 341 340 340 340 341 343 344 345 345 345 345 343 338 332 332
348 347 347 346 346 348 347 344 342 338 338 338 338 336 339 340 334 334 335 335 333 331 330 330 332 337 341 342 343 342 342 342 341 339 338 337 337 335 333 329 328 327 324
345 344 343 342 340 345 344 343 340 339 338 337 335 334 333 334 332 331 331 330 330 329 328 329 331 335 339 341 339 341 340 337 335 334 333 331 328 326 324 324 324 323 322
344 343 341 337 337 336 335 335 337 336 335 335 335 333 332 331 331 330 329 328 328 327 327 328 329 333 339 339 338 336 333 332 331 328 326 324 322 321 321 321 321 320 320
341 336 335 332 333 335 334 334 334 334 335 336 334 332 331 331 329 327 327 329 328 327 327 329 332 336 334 333 332 331 329 326 324 323 322 321 320 319 319 319 319 319 320
339 339 337 334 333 333 332 333 332 332 334 336 333 331 330 329 328 326 326 327 328 330 332 331 330 330 328 328 328 327 325 322 321 321 320 319 318 318 318 317 318 319 319
338 335 332 331 332 332 332 333 333 333 332 335 334 333 330 329 328 327 327 326 327 328 328 327 326 324 324 324 324 323 321 320 319 318 317 317 317 316 316 317 318 317 317
336 335 333 332 333 333 332 333 333 332 331 333 333 331 329 328 327 326 326 325 325 325 324 323 323 322 322 322 321 320 319 318 317 316 316 316 316 316 316 315 315 317 319
334 333 334 333 331 331 331 331 334 332 330 331 332 329 328 326 326 326 324 324 325 325 324 322 321 321 321 320 320 319 318 318 317 316 316 316 315 315 315 316 317 317 318
335 334 333 332 331 330 331 330 329 330 330 331 331 329 328 327 326 324 325 326 327 326 324 322 321 321 321 320 320 319 319 318 317 315 315 315 315 316 316 317 318 319 316
333 332 331 332 332 330 330 332 331 330 330 330 330 329 329 328 327 327 327 326 325 325 324 324 323 323 322 322 322 321 319 318 317 317 316 316 317 319 322 322 318 314 314
330 330 331 331 332 331 331 332 331 330 328 331 329 328 329 329 329 328 327 326 325 324 323 322 321 320 318 318 318 317 316 317 319 320 320 321 322 322 322 316 315 315 314
330 331 331 331 331 330 331 332 331 330 331 330 328 328 328 329 329 328 327 325 324 323 322 321 320 320 320 320 319 318 317 317 315 316 316 318 318 317 316 315 315 315 315
Wind_Speed
24 25 22 21 19 16 14 14 15 17 12 6 7 10 14 11 12 10 14 17 8 12 14 15 11 9 13 16 17 15 12 6 5 10 13 14 12 3 11 13 14 12 14
23 21 24 23 22 20 18 18 20 18 16 17 16 12 15 13 12 15 17 16 14 16 14 15 13 12 14 14 17 14 10 5 3 16 4 12 10 15 11 9 6 10 12
24 20 24 25 20 23 23 24 19 19 17 17 16 17 16 17 17 19 19 19 20 17 19 17 18 17 16 16 15 15 15 10 10 11 12 8 13 15 8 10 9 11 13
23 22 21 23 23 20 22 19 22 17 16 17 17 18 19 19 19 19 20 22 22 20 18 19 20 20 20 19 16 18 18 15 13 13 15 16 14 13 17 15 16 16 14
21 20 22 18 19 20 20 18 16 17 17 19 21 19 20 20 19 22 23 22 22 24 23 21 19 18 22 18 18 19 17 14 14 15 14 17 15 7 19 16 15 16 17
23 19 19 16 20 20 20 18 18 18 17 17 17 22 20 20 22 23 19 23 23 23 24 22 22 21 20 18 19 21 19 13 14 15 16 14 16 15 20 21 15 13 5
19 17 16 19 16 17 16 14 13 12 13 17 19 19 20 19 21 23 23 21 21 25 24 24 24 21 23 25 24 24 27 28 26 24 20 20 20 18 8 13 17 19 15
17 17 15 15 16 16 13 10 11 10 10 11 13 16 17 18 18 17 19 18 23 25 24 22 21 24 27 22 17 22 24 25 27 30 33 36 34 31 23 16 16 18 16
17 16 16 15 13 12 12 12 11 11 12 15 17 17 16 18 19 20 19 19 19 22 24 26 26 25 24 25 26 23 23 24 23 25 27 29 29 27 28 24 20 14 9
16 16 15 14 13 12 10 9 9 9 10 11 13 15 16 17 17 16 14 15 16 17 20 23 26 29 30 28 28 28 24 25 22 24 24 22 22 31 32 29 28 21 12
15 14 12 11 9 8 7 6 5 7 9 11 11 13 15 18 17 14 14 14 18 17 17 19 20 16 21 24 26 28 28 25 24 23 25 30 29 29 31 28 28 28 24
12 11 9 8 8 10 10 9 7 8 11 14 17 20 19 21 20 18 16 15 15 17 19 19 16 16 15 13 13 12 12 13 20 24 27 26 28 29 26 24 21 21 19
13 13 13 13 11 6 9 8 8 15 19 18 16 18 21 9 10 8 8 7 7 10 10 12 14 14 15 16 14 12 13 16 17 18 17 20 16 15 14 13 11 13 12
13 13 13 12 11 9 9 12 16 17 11 6 11 15 19 9 5 2 2 1 5 6 10 14 14 15 17 17 18 17 16 18 17 16 15 16 16 15 16 15 10 6 6
11 9 9 11 13 12 13 13 14 13 9 7 7 10 12 12 8 11 9 9 9 13 16 17 15 15 15 14 12 14 13 10 10 12 16 17 14 12 9 8 12 14 12
8 6 8 9 7 13 12 10 12 15 13 9 8 8 9 12 15 16 17 18 18 18 17 13 15 15 15 12 11 7 7 9 13 14 13 11 10 9 11 11 15 19 21
8 2 6 5 6 7 8 7 7 6 9 12 11 10 9 11 14 18 21 21 21 19 14 13 15 17 14 9 3 5 7 10 10 7 7 9 12 14 17 19 21 23 21
7 4 2 4 5 5 8 8 7 12 8 6 8 8 7 10 14 16 15 15 12 12 12 12 13 10 4 6 6 7 7 6 5 9 13 16 17 20 20 20 20 22 23
9 9 8 3 4 4 6 8 10 11 7 1 2 3 7 7 11 13 11 8 6 10 11 6 3 6 6 4 4 5 7 9 11 15 17 18 20 23 21 21 23 24 24
8 4 2 3 6 7 10 9 9 9 13 6 5 3 2 3 8 9 10 8 7 5 2 3 5 3 3 4 6 9 10 13 15 17 18 20 22 22 24 28 28 28 26
11 13 8 5 8 9 8 8 11 10 13 9 4 4 5 7 9 9 7 7 6 4 2 2 2 2 4 6 10 13 15 17 17 20 21 24 25 26 27 27 28 22 17
7 4 10 8 5 8 6 11 7 9 13 13 4 3 4 5 5 5 7 6 2 2 3 3 5 7 9 12 14 16 18 19 18 19 23 25 28 28 25 22 18 15 13
6 6 5 5 6 7 5 5 10 11 10 7 3 1 3 3 4 4 3 2 4 6 6 9 12 12 12 12 12 14 15 16 19 23 24 27 25 23 20 18 15 14 17
10 9 8 5 4 8 8 8 9 8 6 7 4 4 4 4 6 5 6 7 8 10 9 12 11 11 10 12 14 14 16 19 21 21 24 25 20 17 18 16 15 11 18
9 9 4 6 6 9 5 6 7 6 7 8 5 5 8 8 7 9 11 10 8 9 10 10 10 13 15 15 17 18 18 16 15 14 16 21 21 20 18 9 9 16 18
10 5 3 3 5 9 6 6 6 7 7 5 6 5 5 9 11 10 11 14 13 13 14 16 13 11 9 8 16 15 17 18 9 8 7 6 11 6 8 10 12 15 18
Wind_Direction
200 190 198 206 215 218 210 216 230 252 261 220 222 238 238 238 249 241 245 258 276 246 253 270 275 262 275 283 300 318 342 346 74 335 131 169 195 230 212 195 207 223 224
199 202 192 205 217 213 216 226 224 229 248 248 243 238 244 254 255 254 255 251 259 246 247 256 261 264 267 272 282 294 299 341 225 278 254 203 190 187 212 201 177 221 237
193 206 194 207 217 223 220 228 229 227 233 243 243 242 239 241 247 247 250 247 256 253 252 250 247 251 257 262 271 279 284 292 240 251 283 295 163 173 249 222 185 199 217
201 208 199 204 222 227 227 227 224 227 228 232 240 245 240 242 244 243 245 247 253 254 249 250 254 250 256 253 255 264 268 267 263 271 265 269 228 226 201 214 194 205 218
212 198 194 216 227 233 240 239 233 234 242 244 241 243 245 249 249 242 240 242 247 249 255 261 263 258 249 254 247 252 258 265 260 264 270 259 264 220 202 203 195 218 222
195 202 208 222 226 229 238 236 242 244 240 247 247 247 246 247 254 258 260 249 251 251 251 253 257 267 268 265 254 252 250 245 255 255 266 274 257 237 224 210 201 165 190
202 201 221 220 218 224 236 239 241 252 246 253 254 257 262 260 263 271 272 268 262 254 252 255 260 259 261 260 259 265 261 259 257 256 260 264 275 265 236 231 217 213 214
197 196 200 207 218 225 223 228 238 246 253 266 266 265 268 270 273 272 280 277 272 263 260 260 256 256 259 265 262 259 260 263 263 257 256 261 260 266 263 256 236 237 223
191 198 200 196 206 216 232 245 257 258 259 265 271 274 272 275 272 274 275 279 284 273 266 261 257 258 259 261 264 262 256 259 261 263 268 272 273 270 262 258 247 218 190
188 193 201 208 214 218 235 246 255 255 260 268 271 274 274 274 270 269 267 273 277 279 273 267 267 263 262 257 257 261 260 262 262 263 270 273 268 266 264 256 252 225 192
182 184 188 189 191 203 212 226 244 248 266 284 291 285 278 271 267 260 264 265 271 278 282 279 277 283 266 260 259 261 260 262 260 263 269 276 274 271 267 264 255 250 222
154 157 158 170 198 204 205 224 241 268 273 267 262 266 270 271 271 263 262 269 271 271 279 285 293 285 279 282 290 293 288 272 262 268 271 269 269 265 265 257 247 243 235
151 165 180 191 205 209 205 234 249 253 247 253 257 249 247 302 223 244 246 267 289 293 290 286 291 292 293 294 292 282 269 264 266 265 268 271 274 275 265 242 252 260 270
171 186 196 208 218 227 248 246 242 249 285 344 0 348 347 340 94 116 217 317 339 315 304 300 295 292 287 288 275 282 282 271 267 257 264 270 269 269 263 253 236 210 154
180 196 215 229 218 220 229 251 267 284 291 285 296 308 327 337 358 345 330 310 298 297 300 303 298 287 281 272 273 276 275 257 285 278 273 274 264 236 217 202 167 152 138
166 193 224 228 246 216 239 239 247 261 276 264 269 278 290 287 301 306 303 300 298 296 297 295 291 280 276 276 283 275 264 283 286 283 271 246 215 178 158 153 153 135 127
197 108 178 207 263 265 278 302 302 252 252 260 250 259 271 285 297 299 295 292 290 288 281 276 273 269 273 281 260 266 274 289 276 255 225 183 165 153 146 137 131 129 125
182 175 206 273 281 279 282 287 290 276 262 243 233 251 266 296 310 314 313 301 286 276 265 255 262 281 290 286 274 273 270 246 205 170 159 156 152 145 136 132 133 133 128
184 204 187 262 284 287 307 284 268 280 296 127 190 265 296 298 319 317 316 317 287 318 264 260 254 290 287 268 231 213 200 178 165 157 152 153 148 141 133 130 128 130 131
185 182 188 290 281 279 281 276 280 278 292 222 242 232 217 277 293 293 301 303 298 288 308 290 292 278 246 218 189 180 163 152 147 147 140 140 137 135 133 133 134 135 141
199 179 194 233 250 257 279 285 298 323 305 294 211 210 264 284 286 284 280 282 280 274 249 208 175 189 172 163 155 149 144 141 145 144 145 142 138 137 144 148 152 158 170
191 211 200 239 338 320 352 334 321 299 299 309 188 185 287 298 267 266 269 266 232 228 218 176 145 143 148 148 146 144 140 138 138 139 141 146 147 150 155 158 169 180 165
197 215 238 268 301 314 274 301 321 297 281 310 299 294 223 265 256 232 202 186 172 155 132 111 121 123 127 130 135 137 142 146 147 147 149 154 158 165 170 176 191 184 158
203 214 225 233 295 290 292 293 307 295 258 263 254 255 236 210 215 218 167 168 142 140 140 137 139 137 144 147 146 145 154 156 158 158 161 167 177 197 212 231 168 159 148
223 231 242 284 244 273 267 306 308 289 256 260 243 256 226 222 211 186 179 162 156 154 149 141 143 147 145 153 153 153 156 160 175 195 209 212 222 221 205 152 155 157 151
254 244 276 269 278 292 288 290 279 264 253 244 235 234 268 240 231 213 186 174 178 184 171 166 160 169 179 196 152 164 179 187 182 178 225 150 151 183 148 161 182 174 172